| time (UTC) | temp F | wind direction | speed MPH | gust MPH | rain 1hr in | rain 24hr in | rain mn in | humidity % | barometer mb |
| 20260504034515 | 37 | 190 | 0.0 | 0.0 | 0.00 | 0.00 | 0.00 | 70 | 1010.9 |
| 20260504033014 | 37 | 190 | 0.0 | 0.0 | 0.00 | 0.00 | 0.00 | 71 | 1010.8 |
| 20260504031515 | 37 | 190 | 0.0 | 0.0 | 0.00 | 0.00 | 0.00 | 72 | 1010.6 |
| 20260504030015 | 37 | 190 | 0.0 | 0.0 | 0.00 | 0.00 | 0.00 | 73 | 1010.6 |
| 20260504025004 | 37 | 0 | 0.0 | 0.0 | 0.00 | 0.00 | 0.00 | 72 | 1009.8 |
| 20260504024602 | 36 | 190 | 0.0 | 0.0 | 0.00 | 0.00 | 0.00 | 71 | 1010.7 |
| 20260504023504 | 37 | 0 | 0.0 | 0.0 | 0.00 | 0.00 | 0.00 | 71 | 1009.8 |
| 20260504023103 | 37 | 190 | 0.0 | 0.0 | 0.00 | 0.00 | 0.00 | 71 | 1010.6 |
| 20260504023003 | 37 | 0 | 0.0 | 0.0 | 0.00 | 0.00 | 0.00 | 71 | 1009.8 |
| 20260504022504 | 37 | 0 | 0.0 | 0.0 | 0.00 | 0.00 | 0.00 | 71 | 1009.7 |
| 20260504022004 | 37 | 0 | 0.0 | 0.0 | 0.00 | 0.00 | 0.00 | 70 | 1009.6 |
| 20260504021603 | 37 | 190 | 0.0 | 0.0 | 0.00 | 0.00 | 0.00 | 69 | 1010.5 |
| 20260504021504 | 37 | 0 | 0.0 | 0.0 | 0.00 | 0.00 | 0.00 | 69 | 1009.7 |
| 20260504021003 | 37 | 0 | 0.0 | 0.0 | 0.00 | 0.00 | 0.00 | 69 | 1009.6 |
| 20260504020504 | 37 | 0 | 0.0 | 0.0 | 0.00 | 0.00 | 0.00 | 68 | 1009.6 |
| 20260504020108 | 37 | 190 | 0.0 | 0.0 | 0.00 | 0.00 | 0.00 | 68 | 1010.4 |
| 20260504020004 | 37 | 0 | 0.0 | 0.0 | 0.00 | 0.00 | 0.00 | 68 | 1009.6 |
| 20260504015503 | 37 | 0 | 0.0 | 0.0 | 0.00 | 0.00 | 0.00 | 69 | 1009.5 |
| 20260504015003 | 38 | 0 | 0.0 | 0.0 | 0.00 | 0.00 | 0.00 | 69 | 1009.5 |
| 20260504014608 | 37 | 190 | 0.0 | 0.0 | 0.00 | 0.00 | 0.00 | 69 | 1010.3 |
| 20260504014503 | 38 | 0 | 0.0 | 0.0 | 0.00 | 0.00 | 0.00 | 68 | 1009.4 |
| 20260504014004 | 38 | 0 | 0.0 | 0.0 | 0.00 | 0.00 | 0.00 | 68 | 1009.4 |
| 20260504013504 | 38 | 0 | 0.0 | 0.0 | 0.00 | 0.00 | 0.00 | 67 | 1009.4 |
| 20260504013103 | 37 | 190 | 0.0 | 0.0 | 0.00 | 0.00 | 0.00 | 64 | 1010.2 |
| 20260504013004 | 38 | 0 | 0.0 | 0.0 | 0.00 | 0.00 | 0.00 | 64 | 1009.3 |
| 20260504012504 | 38 | 0 | 0.0 | 0.0 | 0.00 | 0.00 | 0.00 | 63 | 1009.3 |
| 20260504011603 | 38 | 190 | 0.0 | 0.0 | 0.00 | 0.00 | 0.00 | 63 | 1010.0 |
| 20260504011504 | 39 | 0 | 0.0 | 0.0 | 0.00 | 0.00 | 0.00 | 63 | 1009.1 |
| 20260504011004 | 39 | 0 | 0.0 | 0.0 | 0.00 | 0.00 | 0.00 | 61 | 1009.1 |
| 20260504010503 | 40 | 0 | 0.0 | 0.0 | 0.00 | 0.00 | 0.00 | 62 | 1008.9 |
| 20260504010004 | 40 | 0 | 0.0 | 0.0 | 0.00 | 0.00 | 0.00 | 62 | 1008.9 |
| 20260504005503 | 40 | 0 | 0.0 | 0.0 | 0.00 | 0.00 | 0.00 | 62 | 1008.8 |
| 20260504004603 | 40 | 190 | 0.0 | 0.0 | 0.00 | 0.00 | 0.00 | 56 | 1009.5 |
| 20260504004503 | 41 | 0 | 0.0 | 0.0 | 0.00 | 0.00 | 0.00 | 57 | 1008.6 |
| 20260504003504 | 42 | 0 | 0.0 | 0.0 | 0.00 | 0.00 | 0.00 | 55 | 1008.5 |
| 20260504003114 | 42 | 190 | 0.0 | 0.0 | 0.00 | 0.00 | 0.00 | 54 | 1009.3 |
| 20260504003004 | 42 | 0 | 0.0 | 0.0 | 0.00 | 0.00 | 0.00 | 54 | 1008.5 |
| 20260504002504 | 43 | 0 | 0.0 | 0.0 | 0.00 | 0.00 | 0.00 | 52 | 1008.4 |
| 20260504002004 | 44 | 0 | 0.0 | 0.0 | 0.00 | 0.00 | 0.00 | 49 | 1008.4 |
| 20260504001603 | 44 | 190 | 0.0 | 0.0 | 0.00 | 0.00 | 0.00 | 47 | 1009.2 |
| 20260504001503 | 44 | 0 | 0.0 | 0.0 | 0.00 | 0.00 | 0.00 | 47 | 1008.3 |
| 20260504000504 | 45 | 0 | 0.0 | 0.0 | 0.00 | 0.00 | 0.00 | 43 | 1008.2 |
| 20260504000107 | 45 | 190 | 0.0 | 0.0 | 0.00 | 0.00 | 0.00 | 45 | 1008.9 |
| 20260503235004 | 47 | 0 | 0.0 | 0.0 | 0.00 | 0.00 | 0.00 | 39 | 1008.0 |
| 20260503234602 | 47 | 190 | 0.0 | 0.0 | 0.00 | 0.00 | 0.00 | 38 | 1008.8 |
| 20260503234504 | 48 | 0 | 0.0 | 0.0 | 0.00 | 0.00 | 0.00 | 38 | 1008.0 |
| 20260503234004 | 48 | 0 | 0.0 | 0.0 | 0.00 | 0.00 | 0.00 | 37 | 1007.9 |
| 20260503233504 | 49 | 0 | 0.0 | 0.0 | 0.00 | 0.00 | 0.00 | 36 | 1007.9 |
| 20260503233110 | 48 | 190 | 0.0 | 0.0 | 0.00 | 0.00 | 0.00 | 37 | 1008.7 |
| 20260503233004 | 49 | 0 | 0.0 | 0.0 | 0.00 | 0.00 | 0.00 | 37 | 1007.9 |
| 20260503232004 | 50 | 0 | 0.0 | 0.0 | 0.00 | 0.00 | 0.00 | 35 | 1007.9 |
| 20260503231604 | 49 | 190 | 0.0 | 0.0 | 0.00 | 0.00 | 0.00 | 35 | 1008.6 |
| 20260503231503 | 50 | 0 | 0.0 | 0.0 | 0.00 | 0.00 | 0.00 | 36 | 1007.8 |
| 20260503231004 | 50 | 0 | 0.0 | 0.0 | 0.00 | 0.00 | 0.00 | 37 | 1007.8 |
| 20260503230504 | 50 | 0 | 0.0 | 0.0 | 0.00 | 0.00 | 0.00 | 36 | 1007.8 |
| 20260503230114 | 50 | 190 | 0.0 | 0.0 | 0.00 | 0.00 | 0.00 | 40 | 1008.6 |
| 20260503230003 | 50 | 0 | 0.0 | 0.0 | 0.00 | 0.00 | 0.00 | 38 | 1007.8 |
| 20260503225503 | 51 | 191 | 0.0 | 1.0 | 0.00 | 0.00 | 0.00 | 37 | 1007.8 |
| 20260503225003 | 51 | 191 | 0.0 | 1.0 | 0.00 | 0.00 | 0.00 | 36 | 1007.8 |
| 20260503224614 | 51 | 190 | 0.0 | 0.0 | 0.00 | 0.00 | 0.00 | 34 | 1008.6 |
| 20260503224504 | 51 | 0 | 0.0 | 0.0 | 0.00 | 0.00 | 0.00 | 35 | 1007.8 |
| 20260503224004 | 51 | 0 | 0.0 | 0.0 | 0.00 | 0.00 | 0.00 | 34 | 1007.8 |
| 20260503223504 | 51 | 0 | 0.0 | 0.0 | 0.00 | 0.00 | 0.00 | 32 | 1007.8 |
| 20260503223114 | 51 | 190 | 0.0 | 0.0 | 0.00 | 0.00 | 0.00 | 33 | 1008.6 |
| 20260503223004 | 51 | 0 | 0.0 | 0.0 | 0.00 | 0.00 | 0.00 | 30 | 1007.8 |
| 20260503222504 | 52 | 0 | 0.0 | 0.0 | 0.00 | 0.00 | 0.00 | 35 | 1007.8 |
| 20260503222003 | 52 | 0 | 0.0 | 0.0 | 0.00 | 0.00 | 0.00 | 32 | 1007.7 |
| 20260503221602 | 51 | 190 | 0.0 | 0.0 | 0.00 | 0.00 | 0.00 | 33 | 1008.5 |
| 20260503221503 | 52 | 0 | 0.0 | 0.0 | 0.00 | 0.00 | 0.00 | 34 | 1007.7 |
| 20260503221003 | 52 | 0 | 0.0 | 0.0 | 0.00 | 0.00 | 0.00 | 33 | 1007.7 |
| 20260503220004 | 52 | 191 | 0.0 | 3.0 | 0.00 | 0.00 | 0.00 | 32 | 1007.7 |
| 20260503215503 | 53 | 191 | 0.0 | 3.0 | 0.00 | 0.00 | 0.00 | 32 | 1007.8 |
| 20260503215003 | 53 | 191 | 0.0 | 1.0 | 0.00 | 0.00 | 0.00 | 31 | 1007.8 |
| 20260503214602 | 53 | 190 | 0.0 | 1.0 | 0.00 | 0.00 | 0.00 | 32 | 1008.6 |
| 20260503214003 | 53 | 0 | 0.0 | 0.0 | 0.00 | 0.00 | 0.00 | 30 | 1007.7 |
| 20260503213503 | 53 | 0 | 0.0 | 0.0 | 0.00 | 0.00 | 0.00 | 32 | 1007.6 |
| 20260503213102 | 52 | 190 | 0.0 | 7.0 | 0.00 | 0.00 | 0.00 | 32 | 1008.4 |
| 20260503213004 | 53 | 191 | 0.0 | 7.0 | 0.00 | 0.00 | 0.00 | 30 | 1007.6 |
| 20260503212503 | 53 | 191 | 0.0 | 7.0 | 0.00 | 0.00 | 0.00 | 29 | 1007.5 |
| 20260503212004 | 52 | 0 | 0.0 | 0.0 | 0.00 | 0.00 | 0.00 | 31 | 1007.5 |
| 20260503211603 | 52 | 190 | 0.0 | 1.0 | 0.00 | 0.00 | 0.00 | 29 | 1008.3 |
| 20260503211503 | 52 | 191 | 0.0 | 2.0 | 0.00 | 0.00 | 0.00 | 30 | 1007.4 |
| 20260503210503 | 54 | 191 | 0.0 | 4.0 | 0.00 | 0.00 | 0.00 | 30 | 1007.4 |
| 20260503210003 | 54 | 0 | 0.0 | 0.0 | 0.00 | 0.00 | 0.00 | 28 | 1007.2 |
| 20260503205504 | 54 | 191 | 0.0 | 2.0 | 0.00 | 0.00 | 0.00 | 26 | 1007.2 |
| 20260503205003 | 54 | 191 | 0.0 | 4.0 | 0.00 | 0.00 | 0.00 | 31 | 1007.2 |
| 20260503204603 | 53 | 190 | 0.0 | 4.0 | 0.00 | 0.00 | 0.00 | 28 | 1007.9 |
| 20260503204503 | 54 | 191 | 0.0 | 4.0 | 0.00 | 0.00 | 0.00 | 27 | 1007.2 |
| 20260503204003 | 54 | 0 | 0.0 | 0.0 | 0.00 | 0.00 | 0.00 | 29 | 1007.2 |
| 20260503203503 | 53 | 191 | 0.0 | 2.0 | 0.00 | 0.00 | 0.00 | 28 | 1007.1 |
| 20260503203103 | 53 | 190 | 0.0 | 2.0 | 0.00 | 0.00 | 0.00 | 29 | 1007.9 |
| 20260503203003 | 54 | 191 | 0.0 | 2.0 | 0.00 | 0.00 | 0.00 | 27 | 1007.1 |
| 20260503202003 | 54 | 191 | 0.0 | 6.0 | 0.00 | 0.00 | 0.00 | 30 | 1007.0 |
| 20260503201603 | 53 | 190 | 0.0 | 1.0 | 0.00 | 0.00 | 0.00 | 29 | 1007.9 |
| 20260503201503 | 54 | 191 | 0.0 | 1.0 | 0.00 | 0.00 | 0.00 | 29 | 1007.0 |
| 20260503201003 | 53 | 191 | 0.0 | 4.0 | 0.00 | 0.00 | 0.00 | 28 | 1007.0 |
| 20260503200503 | 53 | 191 | 0.0 | 4.0 | 0.00 | 0.00 | 0.00 | 32 | 1007.1 |
| 20260503200003 | 53 | 191 | 0.0 | 3.0 | 0.00 | 0.00 | 0.00 | 29 | 1006.9 |
| 20260503195503 | 53 | 191 | 0.0 | 3.0 | 0.00 | 0.00 | 0.00 | 27 | 1007.0 |
| 20260503194624 | 53 | 190 | 0.0 | 0.0 | 0.00 | 0.00 | 0.00 | 33 | 1007.8 |
| 20260503194503 | 53 | 0 | 0.0 | 0.0 | 0.00 | 0.00 | 0.00 | 30 | 1007.1 |
| 20260503194003 | 53 | 191 | 0.0 | 1.0 | 0.00 | 0.00 | 0.00 | 31 | 1007.0 |
| 20260503193503 | 53 | 191 | 0.0 | 1.0 | 0.00 | 0.00 | 0.00 | 31 | 1007.0 |
| 20260503193112 | 53 | 190 | 0.0 | 4.0 | 0.00 | 0.00 | 0.00 | 32 | 1007.9 |
| 20260503193004 | 53 | 191 | 0.0 | 4.0 | 0.00 | 0.00 | 0.00 | 33 | 1007.0 |
| 20260503192503 | 53 | 191 | 0.0 | 4.0 | 0.00 | 0.00 | 0.00 | 30 | 1006.9 |
| 20260503192004 | 53 | 191 | 0.0 | 2.0 | 0.00 | 0.00 | 0.00 | 31 | 1007.0 |
| 20260503191613 | 53 | 190 | 0.0 | 2.0 | 0.00 | 0.00 | 0.00 | 30 | 1007.9 |
| 20260503191004 | 53 | 0 | 0.0 | 0.0 | 0.00 | 0.00 | 0.00 | 30 | 1007.2 |
| 20260503190504 | 54 | 191 | 0.0 | 1.0 | 0.00 | 0.00 | 0.00 | 31 | 1007.1 |
| 20260503190003 | 54 | 191 | 0.0 | 1.0 | 0.00 | 0.00 | 0.00 | 31 | 1007.1 |
| 20260503185503 | 56 | 191 | 0.0 | 1.0 | 0.00 | 0.00 | 0.00 | 27 | 1007.2 |
| 20260503185003 | 57 | 191 | 0.0 | 1.0 | 0.00 | 0.00 | 0.00 | 29 | 1007.2 |
| 20260503184602 | 57 | 190 | 0.0 | 8.0 | 0.00 | 0.01 | 0.00 | 32 | 1007.9 |
| 20260503184004 | 57 | 190 | 0.0 | 8.0 | 0.00 | 0.00 | 0.00 | 27 | 1006.9 |
| 20260503183503 | 56 | 191 | 0.0 | 2.0 | 0.00 | 0.00 | 0.00 | 34 | 1007.0 |
| 20260503183106 | 55 | 190 | 0.0 | 2.0 | 0.00 | 0.01 | 0.00 | 31 | 1007.8 |
| 20260503183004 | 55 | 0 | 0.0 | 0.0 | 0.00 | 0.00 | 0.00 | 32 | 1007.1 |
| 20260503182504 | 55 | 191 | 0.0 | 7.0 | 0.00 | 0.00 | 0.00 | 28 | 1007.0 |
| 20260503182005 | 56 | 191 | 0.0 | 7.0 | 0.00 | 0.00 | 0.00 | 30 | 1007.0 |
| 20260503181609 | 55 | 190 | 0.0 | 5.0 | 0.00 | 0.01 | 0.00 | 38 | 1007.6 |
| 20260503181505 | 55 | 191 | 0.0 | 5.0 | 0.00 | 0.00 | 0.00 | 38 | 1006.9 |
| 20260503181004 | 54 | 191 | 0.0 | 5.0 | 0.00 | 0.00 | 0.00 | 34 | 1006.9 |
| 20260503180103 | 54 | 190 | 0.0 | 0.0 | 0.00 | 0.01 | 0.00 | 32 | 1007.7 |
| 20260503180004 | 54 | 0 | 0.0 | 0.0 | 0.00 | 0.01 | 0.00 | 33 | 1006.8 |
| 20260503175504 | 54 | 191 | 0.0 | 6.0 | 0.00 | 0.01 | 0.00 | 31 | 1006.9 |
| 20260503175004 | 54 | 191 | 0.0 | 6.0 | 0.00 | 0.01 | 0.00 | 30 | 1006.8 |
| 20260503174621 | 54 | 190 | 0.0 | 2.0 | 0.00 | 0.04 | 0.00 | 32 | 1007.6 |
| 20260503174504 | 55 | 191 | 0.0 | 4.0 | 0.00 | 0.01 | 0.00 | 30 | 1006.8 |
| 20260503174003 | 55 | 191 | 0.0 | 4.0 | 0.00 | 0.01 | 0.00 | 29 | 1006.8 |
| 20260503173503 | 55 | 0 | 0.0 | 0.0 | 0.00 | 0.01 | 0.00 | 32 | 1006.7 |
| 20260503173112 | 55 | 190 | 0.0 | 3.0 | 0.00 | 0.04 | 0.00 | 33 | 1007.5 |
| 20260503173003 | 55 | 191 | 0.0 | 2.0 | 0.00 | 0.01 | 0.00 | 30 | 1006.8 |
| 20260503172504 | 55 | 191 | 0.0 | 2.0 | 0.00 | 0.02 | 0.00 | 31 | 1006.6 |
| 20260503172005 | 56 | 191 | 0.0 | 1.0 | 0.00 | 0.02 | 0.00 | 32 | 1006.7 |
| 20260503171603 | 55 | 190 | 0.0 | 4.0 | 0.00 | 0.04 | 0.00 | 28 | 1007.6 |
| 20260503171503 | 56 | 191 | 0.0 | 3.0 | 0.00 | 0.04 | 0.00 | 29 | 1006.8 |
| 20260503171003 | 56 | 191 | 0.0 | 3.0 | 0.00 | 0.04 | 0.00 | 29 | 1006.7 |
| 20260503170114 | 56 | 190 | 0.0 | 0.0 | 0.00 | 0.04 | 0.00 | 31 | 1007.6 |
| 20260503151004 | 54 | 191 | 0.0 | 2.0 | 0.00 | 0.09 | 0.00 | 36 | 1006.9 |
| 20260503150504 | 54 | 190 | 0.0 | 2.0 | 0.00 | 0.09 | 0.00 | 40 | 1007.0 |
| 20260503150105 | 54 | 190 | 0.0 | 2.0 | 0.00 | 0.09 | 0.00 | 38 | 1007.7 |
| 20260503131003 | 46 | 0 | 0.0 | 0.0 | 0.00 | 0.09 | 0.00 | 63 | 1007.6 |
| 20260503130103 | 45 | 190 | 0.0 | 0.0 | 0.00 | 0.09 | 0.00 | 62 | 1008.4 |
| 20260503081541 | 38 | 190 | 0.0 | 0.0 | 0.00 | 0.35 | 0.00 | 73 | 1008.9 |
| 20260503071537 | 38 | 190 | 0.0 | 0.0 | 0.00 | 0.37 | 0.00 | 71 | 1009.3 |
| 20260503054532 | 40 | 190 | 0.0 | 0.0 | 0.00 | 0.38 | 0.00 | 73 | 1010.3 |
| 20260503053020 | 39 | 190 | 0.0 | 0.0 | 0.00 | 0.38 | 0.00 | 73 | 1010.6 |
| 20260503051518 | 40 | 190 | 0.0 | 0.0 | 0.00 | 0.38 | 0.00 | 73 | 1010.8 |
| 20260503050017 | 40 | 190 | 0.0 | 0.0 | 0.00 | 0.38 | 0.00 | 74 | 1010.8 |
| 20260503044516 | 40 | 190 | 0.0 | 0.0 | 0.00 | 0.38 | 0.00 | 75 | 1010.8 |
| 20260503043012 | 41 | 190 | 0.0 | 0.0 | 0.00 | 0.38 | 0.00 | 76 | 1010.9 |
| 20260503041510 | 41 | 190 | 0.0 | 0.0 | 0.00 | 0.38 | 0.00 | 72 | 1010.9 |
| 20260503040020 | 41 | 190 | 0.0 | 0.0 | 0.00 | 0.38 | 0.38 | 69 | 1011.1 |